Flag for China Weather past 2 weeks in Suzhou, Jiangsu, China

Now
79 °F

Rain showers. Fog.


Feels Like: 83 °F
Forecast: 77 / 83 °F
Wind: 15 mph from Northeast

Location: Shanghai Hongqiao Airport

Current Time: Aug 1, 2014 at 12:09:51 PM

Latest Report: Aug 1, 2014 at 11:30 AM


Visibility: 2 mi

Pressure: 29.47 "Hg

Humidity: 94%

Dew point: 77 °F

Location of SuzhouLocation

Historic Weather in Suzhou — Graph

°F

Suzhou temperature yesterday

Maximum temperature yesterday: 93 °F (at 11:30 AM)
Minimum temperature yesterday: 81 °F (at 11:00 PM)
Average temperature yesterday: 87 °F

Past Weeks' High & Low Weather Summary

 TemperatureHumidityPressure
High97 °F (Jul 20, 1:00 PM)100% (Jul 27, 7:00 PM)29.86 "Hg (Jul 27, 7:00 PM)
Low75 °F (Jul 27, 7:00 PM)47% (Jul 22, 4:00 PM)29.39 "Hg (Jul 25, 2:30 AM)
Average86 °F74%29.71 "Hg
* Reported Jul 17 10:00 AM — Aug 1 10:30 AM, Suzhou, Weather by CustomWeather, © 2014

Note: Actual official high and low records may vary slightly from our data, if they occured in-between our weather recording intervals... More about our weather records

Advertising

Suzhou weather history for previous 24 hours

 ConditionsComfort  
Time TempWeatherWind HumidityBarometerVisibility
10:30 AM
Aug 1
79 °FRain showers. Fog.17 mph94%29.50 "Hg2 mi
10:00 AM79 °FRain showers. Fog.17 mph94%29.50 "Hg2 mi
9:30 AM79 °FSprinkles. Partly sunny.17 mph94%29.50 "Hg4 mi
9:00 AM79 °FRain showers. Fog.15 mph94%29.50 "Hg3 mi
8:30 AM79 °FSprinkles. Partly sunny.15 mph94%29.50 "Hg5 mi
8:00 AM79 °FRain showers. Fog.13 mph94%29.50 "Hg1 mi
7:30 AM79 °FSprinkles. Partly sunny.10 mph94%29.50 "Hg5 mi
7:00 AM79 °FLots of rain. Fog.10 mph94%29.50 "Hg1 mi
6:30 AM79 °FSprinkles. Partly sunny.10 mph94%29.50 "Hg5 mi
6:00 AM81 °FPartly sunny.10 mph89%29.50 "HgN/A
5:30 AM81 °FPartly sunny.10 mph89%29.50 "HgN/A
5:00 AM79 °FSprinkles. Passing clouds.8 mph94%29.50 "HgN/A
4:30 AM79 °FSprinkles. Passing clouds.10 mph94%29.50 "HgN/A
4:00 AM79 °FSprinkles. Passing clouds.13 mph94%29.50 "HgN/A
3:30 AM81 °FSprinkles. Overcast.13 mph89%29.50 "HgN/A
3:00 AM81 °FPassing clouds.10 mph84%29.50 "HgN/A
2:30 AM81 °FSprinkles. Passing clouds.13 mph84%29.53 "HgN/A
2:00 AM82 °FSprinkles. Passing clouds.10 mph79%29.53 "HgN/A
1:30 AM82 °FPassing clouds.13 mph79%29.53 "HgN/A
1:00 AM81 °FSprinkles. Passing clouds.10 mph84%29.53 "HgN/A
12:30 AM82 °FPassing clouds.15 mph79%29.56 "HgN/A
12:00 AM82 °FPassing clouds.13 mph79%29.56 "HgN/A
11:30 PM
Jul 31
82 °FSprinkles. Passing clouds.13 mph84%29.56 "HgN/A
11:00 PM81 °FSprinkles. Passing clouds.13 mph89%29.59 "HgN/A
10:30 PM82 °FSprinkles. Passing clouds.10 mph84%29.59 "HgN/A
10:00 PM84 °FSprinkles. Passing clouds.8 mph79%29.59 "HgN/A
9:30 PM84 °FPassing clouds.10 mph74%29.59 "HgN/A
9:00 PM84 °FPassing clouds.17 mph74%29.59 "HgN/A
8:30 PM86 °FPassing clouds.13 mph70%29.59 "HgN/A
8:00 PM86 °FPassing clouds.15 mph70%29.59 "HgN/A
7:30 PM86 °FPassing clouds.13 mph70%29.59 "HgN/A
7:00 PM86 °FPassing clouds.10 mph70%29.59 "HgN/A
6:30 PM86 °FPartly sunny.13 mph70%29.59 "HgN/A
6:00 PM86 °FPartly sunny.15 mph70%29.59 "HgN/A
5:30 PM88 °FPartly sunny.17 mph62%29.59 "HgN/A
5:00 PM88 °FPartly sunny.17 mph62%29.59 "HgN/A
4:30 PM88 °FPartly sunny.15 mph62%29.59 "HgN/A
4:00 PM90 °FPartly sunny.15 mph67%29.59 "HgN/A
3:30 PM90 °FPartly sunny.17 mph63%29.59 "HgN/A
3:00 PM91 °FPartly sunny.15 mph59%29.59 "HgN/A
2:30 PM88 °FPartly sunny.15 mph75%29.59 "HgN/A
2:00 PM90 °FPartly sunny.15 mph63%29.62 "HgN/A
1:30 PM90 °FPartly sunny.15 mph63%29.62 "HgN/A
1:00 PM91 °FPartly sunny.13 mph59%29.62 "HgN/A
12:30 PM91 °FPartly sunny.15 mph59%29.65 "HgN/A
12:00 PM91 °FPartly sunny.13 mph59%29.65 "HgN/A
Weather by CustomWeather, © 2014

See weather overviewHow to use our weather pages